M I D A S
Marine Information and Data Acquisition System
Tripno 523 of the Zeeleeuw from 2003-06-24 06:22:32 to 2003-06-24 11:27:24
Back to CruiseResearch ActivitiesStationsMapUnderway DataData graphs

EquipmentUnitsComments
TimeDGPSUTC
LatitudeDGPSDM.mWGS84
LongitudeDGPSDM.mWGS84
SpeedMeteo Stationm/sRelative wind speed
DirectionMeteo StationdegRelative wind direction
TemperatureMeteo Stationdeg CelciusAir temperature
PressureMeteo StationPaAtmospheric pressure
HumidityMeteo Station%Relative humidity
Missing or incorrect values are displayed as -999
Metereological data collected by the RV Zeeleeuw from 2003-06-24 06:22:32 to 2003-06-24 11:27:24
                                                                                    Next 1000 lines
Time Latitude Longitude Speed Direction Temperature Pressure Humidity
2003-06-24 06:22:40 51°13.59 2°56.13 3.6 226 16.7 101820 57
2003-06-24 06:22:44 51°13.59 2°56.13 2.8 228 16.7 101820 57
2003-06-24 06:22:50 51°13.59 2°56.13 3 215 16.7 101820 57
2003-06-24 06:22:56 51°13.59 2°56.13 2.9 227 16.7 101820 58
2003-06-24 06:23:00 51°13.59 2°56.13 2.9 218 16.7 101820 58
2003-06-24 06:23:06 51°13.59 2°56.13 3.2 221 16.7 101820 58
2003-06-24 06:23:10 51°13.59 2°56.13 2.6 215 16.7 101820 58
2003-06-24 06:23:16 51°13.59 2°56.13 2.4 214 16.7 101820 58
2003-06-24 06:23:20 51°13.59 2°56.13 2 209 16.7 101820 58
2003-06-24 06:23:24 51°13.59 2°56.13 2.3 225 16.7 101820 58
2003-06-24 06:23:30 51°13.59 2°56.13 2.7 226 16.7 101820 58
2003-06-24 06:23:36 51°13.59 2°56.13 3 217 16.7 101820 59
2003-06-24 06:23:40 51°13.59 2°56.13 2.8 224 16.7 101820 59
2003-06-24 06:23:46 51°13.59 2°56.13 2.8 211 16.7 101820 59
2003-06-24 06:23:50 51°13.59 2°56.13 3.4 214 16.7 101820 59
2003-06-24 06:23:56 51°13.59 2°56.13 2.8 223 16.7 101820 59
2003-06-24 06:24:00 51°13.59 2°56.13 3.1 215 16.7 101820 59
2003-06-24 06:24:04 51°13.59 2°56.13 3.2 221 16.7 101820 59
2003-06-24 06:24:10 51°13.59 2°56.13 2.9 217 16.7 101820 59
2003-06-24 06:24:16 51°13.59 2°56.13 2.9 236 16.7 101820 59
2003-06-24 06:24:20 51°13.59 2°56.13 2.8 218 16.7 101820 59
2003-06-24 06:24:24 51°13.59 2°56.13 2.9 217 16.8 101820 58
2003-06-24 06:24:30 51°13.59 2°56.13 3.3 224 16.8 101820 58
2003-06-24 06:24:36 51°13.59 2°56.13 3.6 226 16.8 101820 59
2003-06-24 06:24:40 51°13.59 2°56.13 3.3 230 16.8 101820 59
2003-06-24 06:24:46 51°13.59 2°56.12 2.8 221 16.8 101820 59
2003-06-24 06:24:52 51°13.59 2°56.12 3 219 16.8 101820 59
2003-06-24 06:24:56 51°13.59 2°56.11 4.7 222 16.8 101820 59
2003-06-24 06:25:02 51°13.59 2°56.11 3.4 238 16.8 101820 59
2003-06-24 06:25:08 51°13.59 2°56.1 4.1 213 16.8 101820 59
2003-06-24 06:25:12 51°13.6 2°56.1 3.9 221 16.8 101820 59
2003-06-24 06:25:18 51°13.6 2°56.09 4.6 216 16.8 101810 59
2003-06-24 06:25:24 51°13.6 2°56.09 4.3 206 16.8 101810 59
2003-06-24 06:25:28 51°13.6 2°56.08 4.4 229 16.8 101820 58
2003-06-24 06:25:34 51°13.6 2°56.08 4.3 226 16.8 101820 58
2003-06-24 06:25:38 51°13.6 2°56.07 4.4 215 16.8 101820 58
2003-06-24 06:25:44 51°13.6 2°56.06 4.1 216 16.8 101820 58
2003-06-24 06:25:48 51°13.6 2°56.06 5 220 16.8 101810 58
2003-06-24 06:25:54 51°13.61 2°56.05 4.3 225 16.8 101810 58
2003-06-24 06:26:00 51°13.61 2°56.04 4.8 225 16.8 101820 57
2003-06-24 06:26:04 51°13.61 2°56.04 4.9 217 16.8 101820 57
2003-06-24 06:26:10 51°13.61 2°56.03 6 214 16.8 101820 58
2003-06-24 06:26:16 51°13.61 2°56.02 5.4 210 16.8 101820 58
2003-06-24 06:26:20 51°13.62 2°56.01 5 222 16.8 101820 58
2003-06-24 06:26:26 51°13.62 2°56 4.8 213 16.8 101820 58
2003-06-24 06:26:30 51°13.62 2°56 4.6 213 16.8 101810 58
2003-06-24 06:26:36 51°13.62 2°55.99 4.2 209 16.8 101810 58
2003-06-24 06:26:40 51°13.62 2°55.98 5.5 213 16.8 101820 58
2003-06-24 06:26:46 51°13.62 2°55.97 4.6 212 16.8 101810 58
2003-06-24 06:26:50 51°13.63 2°55.97 5.4 211 16.8 101810 58
2003-06-24 06:26:56 51°13.63 2°55.96 5 209 16.8 101810 58
2003-06-24 06:27:00 51°13.63 2°55.95 4.5 211 16.8 101820 59
2003-06-24 06:27:06 51°13.63 2°55.94 5.2 212 16.8 101820 59
2003-06-24 06:27:10 51°13.64 2°55.93 5.5 213 16.8 101820 58
2003-06-24 06:27:16 51°13.64 2°55.92 5.8 209 16.8 101820 58
2003-06-24 06:27:20 51°13.64 2°55.92 5 206 16.8 101820 58
2003-06-24 06:27:24 51°13.64 2°55.91 4.1 211 16.8 101820 58
2003-06-24 06:27:30 51°13.65 2°55.9 5 207 16.8 101820 58
2003-06-24 06:27:36 51°13.65 2°55.89 5.2 211 16.8 101820 58
2003-06-24 06:27:40 51°13.65 2°55.89 6 208 16.7 101820 58
2003-06-24 06:27:46 51°13.66 2°55.88 6.2 209 16.7 101820 58
2003-06-24 06:27:50 51°13.66 2°55.87 5.3 210 16.7 101820 59
2003-06-24 06:27:56 51°13.66 2°55.86 5.9 201 16.7 101820 59
2003-06-24 06:28:00 51°13.66 2°55.85 5.4 211 16.7 101820 59
2003-06-24 06:28:06 51°13.67 2°55.84 5.9 211 16.7 101820 59
2003-06-24 06:28:10 51°13.67 2°55.84 4.5 205 16.7 101820 58
2003-06-24 06:28:16 51°13.67 2°55.83 5.3 207 16.7 101820 58
2003-06-24 06:28:20 51°13.67 2°55.82 5.3 205 16.7 101820 59
2003-06-24 06:28:26 51°13.68 2°55.81 5.4 202 16.7 101820 59
2003-06-24 06:28:30 51°13.68 2°55.81 5.2 201 16.7 101820 59
2003-06-24 06:28:36 51°13.69 2°55.8 4.3 198 16.7 101820 59
2003-06-24 06:28:40 51°13.69 2°55.79 6.1 216 16.7 101820 60
2003-06-24 06:28:44 51°13.69 2°55.79 6.3 213 16.7 101820 60
2003-06-24 06:28:50 51°13.7 2°55.78 6 205 16.7 101820 59
2003-06-24 06:28:56 51°13.7 2°55.77 4 203 16.7 101820 59
2003-06-24 06:29:00 51°13.7 2°55.77 5.4 196 16.7 101820 58
2003-06-24 06:29:06 51°13.71 2°55.76 6.1 199 16.7 101820 58
2003-06-24 06:29:10 51°13.71 2°55.75 5.1 196 16.7 101820 60
2003-06-24 06:29:16 51°13.72 2°55.75 4 185 16.7 101820 60
2003-06-24 06:29:20 51°13.72 2°55.74 4.6 197 16.7 101810 61
2003-06-24 06:29:26 51°13.73 2°55.74 3.9 175 16.7 101810 61
2003-06-24 06:29:30 51°13.73 2°55.73 3.3 190 16.7 101820 61
2003-06-24 06:29:34 51°13.73 2°55.73 5.2 170 16.7 101820 61
2003-06-24 06:29:40 51°13.73 2°55.73 4.3 181 16.8 101820 63
2003-06-24 06:29:44 51°13.73 2°55.73 4.6 174 16.8 101820 63
2003-06-24 06:29:48 51°13.73 2°55.73 4.9 163 16.8 101820 61
2003-06-24 06:29:52 51°13.73 2°55.73 5 162 16.8 101820 61
2003-06-24 06:29:56 51°13.74 2°55.72 4.2 160 16.8 101810 60
2003-06-24 06:30:00 51°13.74 2°55.72 4.4 154 16.8 101810 60
2003-06-24 06:30:06 51°13.73 2°55.72 4 147 16.8 101810 58
2003-06-24 06:30:10 51°13.73 2°55.72 3.5 143 16.8 101810 58
2003-06-24 06:30:16 51°13.73 2°55.72 3.8 143 16.8 101810 58
2003-06-24 06:30:20 51°13.73 2°55.72 3.4 131 16.8 101810 58
2003-06-24 06:30:26 51°13.73 2°55.72 3.2 122 16.8 101820 58
2003-06-24 06:30:30 51°13.73 2°55.72 3.4 122 16.8 101820 58
2003-06-24 06:30:36 51°13.73 2°55.72 3.1 119 16.8 101820 58
2003-06-24 06:30:40 51°13.73 2°55.72 3.2 118 16.8 101820 58
2003-06-24 06:30:44 51°13.72 2°55.72 3.2 116 16.8 101820 59
2003-06-24 06:30:50 51°13.72 2°55.71 3.2 127 16.8 101820 59
2003-06-24 06:30:56 51°13.72 2°55.71 4 139 16.8 101810 59
2003-06-24 06:31:00 51°13.72 2°55.71 4.6 133 16.8 101810 59
2003-06-24 06:31:04 51°13.72 2°55.71 4.4 129 16.8 101810 59
2003-06-24 06:31:10 51°13.72 2°55.71 4.5 133 16.8 101810 59
2003-06-24 06:31:16 51°13.72 2°55.71 4.3 138 16.8 101810 59
2003-06-24 06:31:20 51°13.72 2°55.71 4.7 137 16.8 101810 59
2003-06-24 06:31:26 51°13.72 2°55.71 4.2 135 16.8 101820 59
2003-06-24 06:31:30 51°13.72 2°55.71 3.5 119 16.8 101820 59
2003-06-24 06:31:36 51°13.72 2°55.71 3.5 128 16.7 101810 60
2003-06-24 06:31:40 51°13.72 2°55.71 3.2 122 16.7 101810 60
2003-06-24 06:31:46 51°13.72 2°55.71 3.1 125 16.8 101810 60
2003-06-24 06:31:52 51°13.72 2°55.72 3.1 132 16.8 101820 60
2003-06-24 06:31:56 51°13.72 2°55.72 3.7 128 16.8 101820 60
2003-06-24 06:32:02 51°13.73 2°55.72 5.1 140 16.8 101820 60
2003-06-24 06:32:08 51°13.73 2°55.72 4.6 129 16.8 101810 60
2003-06-24 06:32:12 51°13.73 2°55.73 4.3 124 16.8 101810 60
2003-06-24 06:32:18 51°13.73 2°55.73 4.8 113 16.7 101810 60
2003-06-24 06:32:24 51°13.73 2°55.73 5.1 116 16.7 101810 60
2003-06-24 06:32:28 51°13.73 2°55.73 4.6 120 16.7 101810 60
2003-06-24 06:32:34 51°13.73 2°55.73 4.7 117 16.7 101810 60
2003-06-24 06:32:38 51°13.73 2°55.73 4.6 126 16.7 101820 60
2003-06-24 06:32:44 51°13.73 2°55.73 4.5 110 16.7 101820 60
2003-06-24 06:32:48 51°13.73 2°55.72 4.4 101 16.7 101820 60
2003-06-24 06:32:52 51°13.73 2°55.72 5.7 96 16.7 101820 60
2003-06-24 06:32:56 51°13.73 2°55.72 6.1 82 16.8 101810 62
2003-06-24 06:33:02 51°13.73 2°55.71 5.1 77 16.8 101810 62
2003-06-24 06:33:06 51°13.73 2°55.71 5.1 66 16.8 101810 62
2003-06-24 06:33:10 51°13.73 2°55.71 5.7 63 16.8 101810 62
2003-06-24 06:33:16 51°13.73 2°55.7 4 68 16.8 101810 61
2003-06-24 06:33:20 51°13.73 2°55.7 4.8 68 16.8 101810 61
2003-06-24 06:33:26 51°13.73 2°55.7 4.8 61 16.7 101810 60
2003-06-24 06:33:30 51°13.73 2°55.7 4.4 75 16.7 101810 60
2003-06-24 06:33:36 51°13.73 2°55.7 3.9 75 16.7 101810 59
2003-06-24 06:33:40 51°13.73 2°55.7 4.6 77 16.7 101810 59
2003-06-24 06:33:44 51°13.73 2°55.7 4.3 69 16.7 101820 59
2003-06-24 06:33:50 51°13.73 2°55.7 4.3 59 16.7 101820 59
2003-06-24 06:33:56 51°13.73 2°55.71 4 55 16.7 101810 60
2003-06-24 06:34:02 51°13.73 2°55.71 3.9 40 16.7 101810 60
2003-06-24 06:34:08 51°13.73 2°55.71 4 53 16.7 101810 59
2003-06-24 06:34:12 51°13.73 2°55.71 4.2 54 16.7 101810 59
2003-06-24 06:34:18 51°13.73 2°55.71 4.3 49 16.7 101810 59
2003-06-24 06:34:22 51°13.73 2°55.71 4.9 39 16.7 101810 59
2003-06-24 06:34:26 51°13.73 2°55.71 6 36 16.7 101820 59
2003-06-24 06:34:28 51°13.73 2°55.71 6 27 16.7 101820 59
2003-06-24 06:34:36 51°13.73 2°55.7 5.7 29 16.6 101820 59
2003-06-24 06:34:42 51°13.73 2°55.7 5.4 25 16.6 101820 59
2003-06-24 06:34:46 51°13.73 2°55.69 7.3 13 16.6 101820 59
2003-06-24 06:34:52 51°13.74 2°55.69 6.4 11 16.6 101820 59
2003-06-24 06:34:56 51°13.74 2°55.69 6.3 6 16.6 101820 59
2003-06-24 06:35:00 51°13.75 2°55.68 7.4 9 16.6 101820 59
2003-06-24 06:35:04 51°13.75 2°55.68 7.2 2 16.6 101810 60
2003-06-24 06:35:10 51°13.76 2°55.67 7.2 8 16.6 101810 60
2003-06-24 06:35:16 51°13.76 2°55.67 7.2 8 16.6 101810 60
2003-06-24 06:35:20 51°13.77 2°55.66 8.2 3 16.6 101810 60
2003-06-24 06:35:24 51°13.77 2°55.66 7.6 6 16.6 101810 60
2003-06-24 06:35:30 51°13.78 2°55.65 7.5 3 16.6 101810 60
2003-06-24 06:35:36 51°13.79 2°55.64 8.1 360 16.6 101820 60
2003-06-24 06:35:40 51°13.8 2°55.64 8 3 16.6 101820 60
2003-06-24 06:35:44 51°13.8 2°55.63 8.8 1 16.6 101810 59
2003-06-24 06:35:50 51°13.81 2°55.63 8.1 359 16.6 101810 59
2003-06-24 06:35:56 51°13.82 2°55.62 9 4 16.6 101810 60
2003-06-24 06:36:00 51°13.83 2°55.61 8.5 13 16.6 101810 60
2003-06-24 06:36:04 51°13.84 2°55.61 8.8 358 16.6 101810 60
2003-06-24 06:36:10 51°13.85 2°55.6 8.4 358 16.6 101810 60
2003-06-24 06:36:16 51°13.86 2°55.59 7.7 357 16.6 101810 60
2003-06-24 06:36:20 51°13.87 2°55.59 8.3 6 16.6 101810 61
2003-06-24 06:36:24 51°13.88 2°55.58 8.2 8 16.6 101810 61
2003-06-24 06:36:32 51°13.89 2°55.57 8.6 7 16.6 101810 61
2003-06-24 06:36:36 51°13.9 2°55.57 9.1   16.6 101820 61
2003-06-24 06:36:40 51°13.91 2°55.56 8.6 357 16.6 101820 61
2003-06-24 06:36:46 51°13.92 2°55.55 10 1 16.6 101810 62
2003-06-24 06:36:50 51°13.93 2°55.55 10.5 354 16.6 101810 62
2003-06-24 06:36:56 51°13.94 2°55.54 10.3 356 16.6 101810 61
2003-06-24 06:37:00 51°13.95 2°55.54 10.2 355 16.6 101810 61
2003-06-24 06:37:06 51°13.96 2°55.53 9.4 4 16.6 101810 60
2003-06-24 06:37:10 51°13.97 2°55.52 9.4 358 16.6 101810 60
2003-06-24 06:37:16 51°13.98 2°55.52 8.8 357 16.6 101810 59
2003-06-24 06:37:20 51°13.99 2°55.51 9.5 359 16.6 101810 59
2003-06-24 06:37:26 51°14 2°55.5 9.4 360 16.6 101810 59
2003-06-24 06:37:30 51°14.01 2°55.5 9.1 354 16.6 101810 59
2003-06-24 06:37:36 51°14.02 2°55.49 9.6 356 16.5 101810 58
2003-06-24 06:37:40 51°14.03 2°55.48 9.9 355 16.6 101810 59
2003-06-24 06:37:44 51°14.03 2°55.48 9.7 358 16.6 101810 59
2003-06-24 06:37:50 51°14.04 2°55.47 10.2   16.6 101810 59
2003-06-24 06:37:56 51°14.06 2°55.46 9.9 3 16.6 101810 59
2003-06-24 06:38:00 51°14.06 2°55.46 9.1 1 16.6 101810 59
2003-06-24 06:38:06 51°14.08 2°55.45 8.4 2 16.6 101810 59
2003-06-24 06:38:08 51°14.08 2°55.45 9.9 3 16.6 101810 59
2003-06-24 06:38:16 51°14.09 2°55.44 9.3 3 16.6 101810 59
2003-06-24 06:38:20 51°14.1 2°55.43 9 5 16.6 101810 59
2003-06-24 06:38:26 51°14.11 2°55.42 8.9   16.6 101810 58
2003-06-24 06:38:30 51°14.12 2°55.41 8.7 1 16.6 101810 58
2003-06-24 06:38:36 51°14.13 2°55.41 8.4 359 16.6 101810 60
2003-06-24 06:38:40 51°14.14 2°55.4 8.9 1 16.6 101810 60
2003-06-24 06:38:46 51°14.15 2°55.39 9.1 7 16.6 101810 60
2003-06-24 06:38:50 51°14.16 2°55.38 9.9 11 16.6 101810 60
2003-06-24 06:38:56 51°14.17 2°55.37 9.4 11 16.6 101810 61
2003-06-24 06:39:00 51°14.18 2°55.37 10.1 12 16.6 101810 61
2003-06-24 06:39:04 51°14.18 2°55.36 8.5 10 16.6 101820 61
2003-06-24 06:39:10 51°14.19 2°55.35 8.4 6 16.6 101820 61
2003-06-24 06:39:16 51°14.2 2°55.33 10.2 16 16.6 101820 60
2003-06-24 06:39:20 51°14.21 2°55.33 9.7 16 16.6 101820 60
2003-06-24 06:39:24 51°14.22 2°55.32 8.6 4 16.6 101810 60
2003-06-24 06:39:32 51°14.23 2°55.3 8.8 17 16.6 101810 60
2003-06-24 06:39:36 51°14.24 2°55.29 9.9 18 16.6 101820 61
2003-06-24 06:39:40 51°14.25 2°55.28 9.5 18 16.6 101820 61
2003-06-24 06:39:44 51°14.25 2°55.27 9.1 24 16.6 101820 61
2003-06-24 06:39:50 51°14.26 2°55.25 8.9 23 16.6 101820 61
2003-06-24 06:39:56 51°14.27 2°55.23 9.9 21 16.6 101820 61
2003-06-24 06:40:00 51°14.28 2°55.22 10.3 20 16.6 101820 61
2003-06-24 06:40:04 51°14.28 2°55.21 9.9 17 16.6 101820 62
2003-06-24 06:40:10 51°14.29 2°55.19 10.5 17 16.6 101820 62
2003-06-24 06:40:16 51°14.3 2°55.17 10.9 12 16.6 101810 62
2003-06-24 06:40:20 51°14.31 2°55.16 10.9 14 16.6 101810 62
2003-06-24 06:40:24 51°14.31 2°55.15 10.7 15 16.6 101810 62
2003-06-24 06:40:30 51°14.32 2°55.13 11.2 13 16.6 101810 62
2003-06-24 06:40:36 51°14.33 2°55.11 10.6 11 16.6 101820 63
2003-06-24 06:40:40 51°14.34 2°55.09 10.7 13 16.6 101820 63
2003-06-24 06:40:44 51°14.35 2°55.08 10.7 10 16.6 101810 63
2003-06-24 06:40:50 51°14.36 2°55.06 11 5 16.6 101810 63
2003-06-24 06:40:56 51°14.37 2°55.05 10.8 5 16.6 101810 62
2003-06-24 06:41:00 51°14.38 2°55.04 12.1 8 16.6 101810 62
2003-06-24 06:41:04 51°14.39 2°55.03 11.9 14 16.6 101810 61
2003-06-24 06:41:10 51°14.41 2°55.01 12.3 13 16.6 101810 61
2003-06-24 06:41:16 51°14.42 2°55 12.3 14 16.5 101820 61
2003-06-24 06:41:20 51°14.43 2°54.99 12.1 15 16.5 101820 61
2003-06-24 06:41:26 51°14.45 2°54.98 12.2 13 16.5 101820 62
2003-06-24 06:41:30 51°14.46 2°54.96 12 15 16.5 101820 62
2003-06-24 06:41:36 51°14.48 2°54.95 12.3 13 16.5 101800 61
2003-06-24 06:41:40 51°14.49 2°54.94 12.6 15 16.5 101800 61
2003-06-24 06:41:44 51°14.5 2°54.93 12.1 13 16.5 101810 62
2003-06-24 06:41:52 51°14.52 2°54.91 11.8 14 16.5 101810 62
2003-06-24 06:41:56 51°14.53 2°54.9 11.8 15 16.5 101810 62
2003-06-24 06:42:00 51°14.54 2°54.89 11.5 15 16.5 101810 62
2003-06-24 06:42:06 51°14.56 2°54.87 12.1 14 16.5 101810 62
2003-06-24 06:42:12 51°14.58 2°54.85 13.4 14 16.5 101810 62
2003-06-24 06:42:20 51°14.6 2°54.83 12 9 16.4 101810 62
2003-06-24 06:42:30 51°14.63 2°54.8 12.4 9 16.4 101810 62
2003-06-24 06:42:34 51°14.64 2°54.79 12.4 7 16.4 101800 63
2003-06-24 06:42:40 51°14.66 2°54.78 11.8 18 16.4 101800 63
2003-06-24 06:42:44 51°14.67 2°54.76 12.1 15 16.4 101810 64
2003-06-24 06:42:50 51°14.69 2°54.75 11.7 15 16.4 101810 64
2003-06-24 06:42:54 51°14.7 2°54.74 11.3 15 16.5 101800 65
2003-06-24 06:43:00 51°14.71 2°54.72 12.8 14 16.5 101800 65
2003-06-24 06:43:10 51°14.74 2°54.69 13 9 16.5 101810 66
2003-06-24 06:43:14 51°14.75 2°54.68 13 9 16.5 101810 65
2003-06-24 06:43:20 51°14.77 2°54.66 13.4 9 16.5 101810 65
2003-06-24 06:43:24 51°14.78 2°54.65 12.9 6 16.5 101810 65
2003-06-24 06:43:28 51°14.79 2°54.64 12.5 7 16.5 101810 65
2003-06-24 06:43:42 51°14.84 2°54.6 11.4 7 16.4 101820 62
2003-06-24 06:43:48 51°14.85 2°54.58 11.8 7 16.4 101820 62
2003-06-24 06:43:52 51°14.87 2°54.57 12.1 7 16.4 101810 62
2003-06-24 06:43:56 51°14.88 2°54.56 11.9 6 16.4 101810 62
2003-06-24 06:44:02 51°14.89 2°54.54 13.4 12 16.4 101810 63
2003-06-24 06:44:08 51°14.91 2°54.52 13 11 16.4 101810 63
2003-06-24 06:44:12 51°14.92 2°54.51 12.4 12 16.4 101800 63
2003-06-24 06:44:16 51°14.94 2°54.5 12.3 11 16.4 101800 63
2003-06-24 06:44:20 51°14.95 2°54.49 12.1 11 16.4 101810 64
2003-06-24 06:44:24 51°14.96 2°54.48 12.3 14 16.4 101810 64
2003-06-24 06:44:32 51°14.98 2°54.45 13 15 16.4 101810 62
2003-06-24 06:44:36 51°15 2°54.44 12.8 14 16.4 101810 62
2003-06-24 06:44:42 51°15.01 2°54.42 13.9 12 16.4 101810 62
2003-06-24 06:44:48 51°15.03 2°54.4 13.4 9 16.4 101810 62
2003-06-24 06:44:52 51°15.04 2°54.39 12.7 10 16.4 101800 62
2003-06-24 06:44:56 51°15.06 2°54.38 13 13 16.4 101800 62
2003-06-24 06:45:02 51°15.08 2°54.36 12.9 14 16.4 101800 62
2003-06-24 06:45:06 51°15.09 2°54.35 12.7 10 16.4 101800 62
2003-06-24 06:45:12 51°15.11 2°54.33 13.7 10 16.4 101800 63
2003-06-24 06:45:16 51°15.12 2°54.32 13.8 9 16.4 101800 63
2003-06-24 06:45:22 51°15.14 2°54.3 12.9 7 16.4 101810 63
2003-06-24 06:45:28 51°15.16 2°54.28 13 7 16.4 101810 63
2003-06-24 06:45:32 51°15.17 2°54.26 13.2 7 16.4 101810 65
2003-06-24 06:45:36 51°15.18 2°54.25 13.2 8 16.4 101810 65
2003-06-24 06:45:42 51°15.2 2°54.23 13.3 10 16.4 101810 63
2003-06-24 06:45:48 51°15.22 2°54.21 13.8 9 16.4 101810 63
2003-06-24 06:45:52 51°15.23 2°54.2 13.2 7 16.4 101810 63
2003-06-24 06:46:00 51°15.26 2°54.17 13.1 10 16.4 101800 63
2003-06-24 06:46:08 51°15.28 2°54.15 13 7 16.4 101800 63
2003-06-24 06:46:12 51°15.3 2°54.14 12.6 11 16.4 101810 63
2003-06-24 06:46:16 51°15.31 2°54.12 13.5 11 16.4 101810 63
2003-06-24 06:46:20 51°15.32 2°54.11 13.7 9 16.4 101820 63
2003-06-24 06:46:30 51°15.35 2°54.08 14.8 9 16.4 101820 63
2003-06-24 06:46:36 51°15.37 2°54.06 14.4 10 16.4 101810 63
2003-06-24 06:46:40 51°15.38 2°54.05 14.3 3 16.4 101810 63
2003-06-24 06:46:44 51°15.4 2°54.03 14.7 4 16.4 101810 64
2003-06-24 06:46:48 51°15.41 2°54.02 14.8 6 16.4 101810 64
2003-06-24 06:47:02 51°15.45 2°53.97 13.9 6 16.4 101800 64
2003-06-24 06:47:08 51°15.47 2°53.95 13.8 9 16.4 101800 64
2003-06-24 06:47:12 51°15.49 2°53.94 14.3 10 16.4 101810 64
2003-06-24 06:47:16 51°15.5 2°53.93 13.8 8 16.4 101810 64
2003-06-24 06:47:20 51°15.51 2°53.91 13.3 9 16.4 101810 66
2003-06-24 06:47:28 51°15.54 2°53.89 12.9 4 16.4 101810 66
2003-06-24 06:47:32 51°15.55 2°53.87 14 10 16.4 101820 64
2003-06-24 06:47:36 51°15.56 2°53.86 13.6 11 16.4 101820 64
2003-06-24 06:47:40 51°15.57 2°53.85 13.2 9 16.4 101810 64
2003-06-24 06:47:50 51°15.61 2°53.82 13.6 5 16.4 101810 64
2003-06-24 06:47:56 51°15.62 2°53.8 13.4 7 16.4 101810 64
2003-06-24 06:48:00 51°15.64 2°53.79 12.8 4 16.4 101810 64
2003-06-24 06:48:04 51°15.65 2°53.78 13.2 360 16.3 101800 63
2003-06-24 06:48:08 51°15.67 2°53.76 13.1 5 16.3 101800 63
2003-06-24 06:48:16 51°15.69 2°53.74 13.4 3 16.4 101820 64
2003-06-24 06:48:20 51°15.71 2°53.73 14.7 12 16.4 101820 64
2003-06-24 06:48:24 51°15.72 2°53.72 14.2 12 16.4 101820 65
2003-06-24 06:48:28 51°15.73 2°53.71 14.1 9 16.4 101820 65
2003-06-24 06:48:40 51°15.77 2°53.67 13.7 6 16.4 101830 66
2003-06-24 06:48:50 51°15.81 2°53.65 13.3 11 16.4 101830 66
2003-06-24 06:48:54 51°15.82 2°53.64 13.9 9 16.3 101820 65
2003-06-24 06:49:00 51°15.84 2°53.62 14.3 5 16.3 101820 65
2003-06-24 06:49:04 51°15.85 2°53.61 15 6 16.3 101810 65
2003-06-24 06:49:10 51°15.88 2°53.59 14 9 16.3 101810 65
2003-06-24 06:49:16 51°15.9 2°53.57 13.9 8 16.3 101810 64
2003-06-24 06:49:20 51°15.91 2°53.56 12.6 7 16.3 101810 64
2003-06-24 06:49:24 51°15.92 2°53.55 13.1 6 16.3 101810 65
2003-06-24 06:49:28 51°15.94 2°53.54 13.2 5 16.3 101810 65
2003-06-24 06:49:36 51°15.96 2°53.52 13.2 5 16.3 101800 65
2003-06-24 06:49:40 51°15.98 2°53.51 14.3 5 16.3 101800 65
2003-06-24 06:49:44 51°15.99 2°53.5 14.7 5 16.3 101820 66
2003-06-24 06:49:48 51°16 2°53.49 13.7 4 16.3 101820 66
2003-06-24 06:50:00 51°16.04 2°53.45 13.6 6 16.3 101810 65
2003-06-24 06:50:08 51°16.07 2°53.43 13.4 7 16.3 101810 65
2003-06-24 06:50:12 51°16.09 2°53.42 13.4 8 16.3 101820 65
2003-06-24 06:50:16 51°16.1 2°53.41 13.3 7 16.3 101820 65
2003-06-24 06:50:20 51°16.11 2°53.4 14 7 16.3 101810 64
2003-06-24 06:50:28 51°16.14 2°53.37 13.8   16.3 101810 64
2003-06-24 06:50:32 51°16.15 2°53.36 14.2 2 16.2 101810 64
2003-06-24 06:50:36 51°16.17 2°53.35 13 1 16.2 101810 64
2003-06-24 06:50:42 51°16.19 2°53.33 13.8 358 16.2 101820 65
2003-06-24 06:50:48 51°16.21 2°53.32 13.8   16.2 101820 65
2003-06-24 06:50:52 51°16.22 2°53.31 14.9 358 16.2 101820 66
2003-06-24 06:51:02 51°16.25 2°53.28 14.1 2 16.2 101820 66
2003-06-24 06:51:08 51°16.27 2°53.26 13.7 1 16.2 101820 66
2003-06-24 06:51:12 51°16.29 2°53.25 13.6 1 16.2 101820 65
2003-06-24 06:51:16 51°16.3 2°53.24 13.7 3 16.2 101820 65
2003-06-24 06:51:20 51°16.31 2°53.23 14.2 3 16.2 101810 64
2003-06-24 06:51:24 51°16.33 2°53.22 13.7   16.2 101810 64
2003-06-24 06:51:32 51°16.35 2°53.19 14.2 1 16.2 101820 65
2003-06-24 06:51:36 51°16.37 2°53.18 14.6 360 16.2 101820 65
2003-06-24 06:51:40 51°16.38 2°53.17 13.9 359 16.2 101820 64
2003-06-24 06:51:50 51°16.41 2°53.14 13.1 2 16.2 101820 64
2003-06-24 06:51:56 51°16.43 2°53.13 13.3 3 16.2 101820 65
2003-06-24 06:52:00 51°16.45 2°53.11 13.1 5 16.2 101820 65
2003-06-24 06:52:04 51°16.46 2°53.1 13.7 8 16.2 101820 65
2003-06-24 06:52:08 51°16.47 2°53.09 14.2 4 16.2 101820 65
2003-06-24 06:52:16 51°16.5 2°53.07 13.8 5 16.2 101820 65
2003-06-24 06:52:20 51°16.51 2°53.06 13.6 7 16.2 101820 65
2003-06-24 06:52:24 51°16.53 2°53.05 13.4 8 16.2 101830 67
2003-06-24 06:52:28 51°16.54 2°53.04 13.8 7 16.2 101830 67
2003-06-24 06:52:36 51°16.57 2°53.01 13.6 5 16.2 101820 66
2003-06-24 06:52:40 51°16.58 2°53 13.6 5 16.2 101820 66
2003-06-24 06:52:44 51°16.59 2°52.99 13.4 6 16.2 101820 64
2003-06-24 06:52:50 51°16.61 2°52.98 14.1 5 16.2 101820 64
2003-06-24 06:52:54 51°16.62 2°52.96 13.9 1 16.2 101820 65
2003-06-24 06:53:00 51°16.64 2°52.95 14 1 16.2 101820 65
2003-06-24 06:53:04 51°16.66 2°52.94 14.4 1 16.2 101830 66
2003-06-24 06:53:10 51°16.68 2°52.92 14.2 3 16.2 101830 66
2003-06-24 06:53:12 51°16.68 2°52.91 13.5 2 16.2 101820 67
2003-06-24 06:53:20 51°16.71 2°52.89 13.9 359 16.2 101820 67
2003-06-24 06:53:24 51°16.72 2°52.88 13.1 359 16.2 101830 67
2003-06-24 06:53:28 51°16.74 2°52.87 13.5 360 16.2 101830 67
2003-06-24 06:53:36 51°16.76 2°52.85 14.5 1 16.2 101820 67
2003-06-24 06:53:40 51°16.77 2°52.84 14.1 2 16.2 101820 67
2003-06-24 06:53:44 51°16.79 2°52.83 14.5 3 16.1 101820 65
2003-06-24 06:53:48 51°16.8 2°52.81 14.3 2 16.1 101820 65
2003-06-24 06:54:00 51°16.84 2°52.78 13.7 4 16.1 101830 64
2003-06-24 06:54:08 51°16.86 2°52.76 14.5 6 16.1 101830 64
2003-06-24 06:54:12 51°16.88 2°52.75 14 3 16.1 101820 65
2003-06-24 06:54:16 51°16.89 2°52.74 14.4 1 16.1 101820 65
2003-06-24 06:54:20 51°16.9 2°52.72 14.5 359 16.1 101820 65
2003-06-24 06:54:24 51°16.92 2°52.71 14.2   16.1 101820 65
2003-06-24 06:54:32 51°16.94 2°52.69 14.2 2 16.1 101830 65
2003-06-24 06:54:36 51°16.96 2°52.68 13.7 3 16.1 101830 65
2003-06-24 06:54:42 51°16.98 2°52.66 13.4 359 16.1 101830 65
2003-06-24 06:54:48 51°17 2°52.65 13.1 357 16.1 101830 65
2003-06-24 06:54:52 51°17.01 2°52.64 13.8 351 16 101820 64
2003-06-24 06:54:56 51°17.02 2°52.63 13.8 353 16 101820 64
2003-06-24 06:55:02 51°17.05 2°52.62 13.4 353 16 101840 64
2003-06-24 06:55:08 51°17.07 2°52.62 12.9 357 16 101840 64
2003-06-24 06:55:12 51°17.08 2°52.61 13.4 355 16 101830 65
2003-06-24 06:55:16 51°17.1 2°52.61 13.1 357 16 101830 65
2003-06-24 06:55:20 51°17.11 2°52.61 12.9 354 16 101830 66
2003-06-24 06:55:24 51°17.13 2°52.61 13.4   16 101830 66
2003-06-24 06:55:32 51°17.16 2°52.6 12.8 353 16.1 101830 66
2003-06-24 06:55:36 51°17.17 2°52.6 12.8 357 16.1 101830 66
2003-06-24 06:55:40 51°17.19 2°52.6 13.6 348 16.1 101830 65
2003-06-24 06:55:50 51°17.23 2°52.6 13.4 350 16.1 101830 65
2003-06-24 06:55:56 51°17.25 2°52.59 13.3 347 16 101830 65
2003-06-24 06:56:00 51°17.26 2°52.59 13.5 354 16 101830 65
2003-06-24 06:56:04 51°17.28 2°52.59 13.3 351 16.1 101840 66
2003-06-24 06:56:08 51°17.29 2°52.59 13.5 351 16.1 101840 66
2003-06-24 06:56:22 51°17.35 2°52.58 12.8 349 16.1 101830 67
2003-06-24 06:56:28 51°17.37 2°52.58 12.8   16.1 101830 67
2003-06-24 06:56:32 51°17.39 2°52.57 12.7 348 16.1 101830 66
2003-06-24 06:56:36 51°17.4 2°52.57 12.7 349 16.1 101830 66
2003-06-24 06:56:40 51°17.42 2°52.57 12.9 350 16.1 101820 66
2003-06-24 06:56:48 51°17.45 2°52.57 12.7 348 16.1 101820 66
2003-06-24 06:56:52 51°17.46 2°52.57 12.3 353 16.1 101820 67
2003-06-24 06:56:56 51°17.48 2°52.57 12.5 349 16.1 101820 67
2003-06-24 06:57:00 51°17.49 2°52.56 12.8 355 16.1 101830 66
2003-06-24 06:57:08 51°17.52 2°52.56 12.9 352 16.1 101830 66
2003-06-24 06:57:12 51°17.54 2°52.56 12.3 352 16.1 101830 66
2003-06-24 06:57:16 51°17.55 2°52.56 12.8 352 16.1 101830 66
2003-06-24 06:57:22 51°17.58 2°52.55 13 353 16.1 101830 67
2003-06-24 06:57:28 51°17.6 2°52.55 13   16.1 101830 67
2003-06-24 06:57:32 51°17.61 2°52.55 12.8 357 16.1 101830 68
2003-06-24 06:57:36 51°17.63 2°52.55 12.8 358 16.1 101830 68
2003-06-24 06:57:42 51°17.65 2°52.55 12.9 357 16.1 101840 68
2003-06-24 06:57:48 51°17.68 2°52.54 12.7 354 16.1 101840 68
2003-06-24 06:57:52 51°17.69 2°52.54 13 353 16.1 101840 67
2003-06-24 06:58:00 51°17.72 2°52.54 12.5 352 16.1 101830 66
2003-06-24 06:58:08 51°17.75 2°52.54 13.4 348 16.1 101830 66
2003-06-24 06:58:12 51°17.77 2°52.53 12.8 351 16.1 101830 67
2003-06-24 06:58:16 51°17.78 2°52.53 12.7 349 16.1 101830 67
2003-06-24 06:58:20 51°17.8 2°52.53 12.2 350 16.1 101830 68
2003-06-24 06:58:24 51°17.81 2°52.53 12.4   16.1 101830 68
2003-06-24 06:58:32 51°17.84 2°52.53 13.8 349 16.1 101830 68
2003-06-24 06:58:36 51°17.86 2°52.52 13.3 357 16.1 101830 68
2003-06-24 06:58:42 51°17.88 2°52.52 13 351 16.1 101830 68
2003-06-24 06:58:48 51°17.91 2°52.52 12.3 354 16.1 101830 68
2003-06-24 06:58:52 51°17.92 2°52.52 12.4 353 16 101840 65
2003-06-24 06:58:56 51°17.94 2°52.52 12.3 352 16 101840 65
2003-06-24 06:59:02 51°17.96 2°52.51 12.3 353 16 101830 66
2003-06-24 06:59:08 51°17.98 2°52.51 12.2 354 16 101830 66
2003-06-24 06:59:12 51°18 2°52.51 12.6 355 16 101830 66
2003-06-24 06:59:20 51°18.03 2°52.51 12.8 350 16 101830 66
2003-06-24 06:59:24 51°18.04 2°52.51 12.4   16 101830 66
2003-06-24 06:59:32 51°18.08 2°52.5 12.3 350 16 101840 66
2003-06-24 06:59:36 51°18.09 2°52.5 11.8 352 16 101840 66
2003-06-24 06:59:40 51°18.11 2°52.5 12 354 16 101830 67
2003-06-24 06:59:50 51°18.14 2°52.5 11.8 352 16 101830 67
2003-06-24 06:59:56 51°18.17 2°52.5 11.4 353 16 101840 67
2003-06-24 07:00:00 51°18.18 2°52.49 12.4 353 16 101840 67
2003-06-24 07:00:04 51°18.2 2°52.49 11.4 349 16 101840 67
2003-06-24 07:00:10 51°18.22 2°52.49 12.1 351 16 101840 67
2003-06-24 07:00:16 51°18.24 2°52.49 12.3 353 16 101840 67
2003-06-24 07:00:20 51°18.26 2°52.49 12.1 349 16 101840 67
2003-06-24 07:00:24 51°18.28 2°52.5 12.3 350 16 101840 67
2003-06-24 07:00:30 51°18.3 2°52.5 11.8 346 16 101840 67
2003-06-24 07:00:36 51°18.32 2°52.51 11.5 347 16 101840 67
2003-06-24 07:00:40 51°18.34 2°52.52 11.4 344 16 101840 67
2003-06-24 07:00:44 51°18.35 2°52.53 10.6 346 16 101840 67
2003-06-24 07:00:50 51°18.37 2°52.54 10.9 336 16 101840 67
2003-06-24 07:00:56 51°18.39 2°52.57 10.2 334 16 101830 67
2003-06-24 07:01:00 51°18.4 2°52.58 9.1 328 16 101830 67
2003-06-24 07:01:04 51°18.41 2°52.6 9.5 327 16 101840 66
2003-06-24 07:01:10 51°18.43 2°52.63 8.8 329 16 101840 66
2003-06-24 07:01:16 51°18.44 2°52.66 8.8 325 16 101840 66
2003-06-24 07:01:20 51°18.45 2°52.68 7.9 323 16 101840 66
2003-06-24 07:01:24 51°18.45 2°52.7 8 321 16 101840 66
2003-06-24 07:01:30 51°18.46 2°52.74 7.4 321 16 101840 66
2003-06-24 07:01:36 51°18.47 2°52.77 7.7 318 16 101840 67
2003-06-24 07:01:40 51°18.48 2°52.8 7.8 330 16 101840 67
2003-06-24 07:01:50 51°18.49 2°52.85 7.6 326 16 101850 67
2003-06-24 07:01:56 51°18.5 2°52.89 8.3 323 16 101850 67
2003-06-24 07:02:00 51°18.51 2°52.91 8.6 322 16 101850 67
2003-06-24 07:02:10 51°18.53 2°52.97 7.8 326 16 101850 67
2003-06-24 07:02:14 51°18.53 2°52.99 8.9 324 16 101850 68
2003-06-24 07:02:20 51°18.54 2°53.03 9.5 322 16 101850 68
2003-06-24 07:02:24 51°18.55 2°53.05 8.9 321 16 101850 68
2003-06-24 07:02:30 51°18.56 2°53.09 8.6 322 16 101850 68
2003-06-24 07:02:36 51°18.57 2°53.12 8.2 322 16 101850 68
2003-06-24 07:02:40 51°18.58 2°53.14 9.3 328 16 101850 68
2003-06-24 07:02:50 51°18.6 2°53.2 9 328 15.9 101840 66
2003-06-24 07:02:56 51°18.61 2°53.24 8.7 325 15.9 101840 66
2003-06-24 07:03:00 51°18.61 2°53.26 8.5 328 15.9 101840 66
2003-06-24 07:03:04 51°18.62 2°53.28 8.9 326 15.9 101850 67
2003-06-24 07:03:10 51°18.63 2°53.32 9.1 325 15.9 101850 67
2003-06-24 07:03:14 51°18.64 2°53.34 8.6 324 16 101850 67
2003-06-24 07:03:20 51°18.65 2°53.38 8.1 324 16 101850 67
2003-06-24 07:03:30 51°18.66 2°53.44 8.8 322 15.9 101850 67
2003-06-24 07:03:36 51°18.67 2°53.47 8.9 319 15.9 101840 67
2003-06-24 07:03:40 51°18.68 2°53.49 8.9 318 15.9 101840 67
2003-06-24 07:03:44 51°18.69 2°53.52 8.7 318 15.9 101840 67
2003-06-24 07:03:50 51°18.7 2°53.55 8.7 320 15.9 101840 67
2003-06-24 07:03:56 51°18.71 2°53.59 8.8 324 15.9 101850 67
2003-06-24 07:04:00 51°18.72 2°53.61 8.1 322 15.9 101850 67
2003-06-24 07:04:04 51°18.72 2°53.63 8.3 318 15.9 101850 68
2003-06-24 07:04:10 51°18.73 2°53.67 8.3 316 15.9 101850 68
2003-06-24 07:04:14 51°18.74 2°53.69 8.1 320 16 101840 69
2003-06-24 07:04:20 51°18.75 2°53.73 7.8 328 16 101840 69
2003-06-24 07:04:30 51°18.77 2°53.79 8.1 324 16 101850 69
2003-06-24 07:04:36 51°18.78 2°53.82 8.1 327 16 101840 68
2003-06-24 07:04:40 51°18.79 2°53.84 8.4 326 16 101840 68
2003-06-24 07:04:44 51°18.79 2°53.87 7.9 324 16 101850 69
2003-06-24 07:04:50 51°18.8 2°53.9 8.5 324 16 101850 69
2003-06-24 07:04:56 51°18.81 2°53.94 8.2 327 16 101850 69
2003-06-24 07:05:00 51°18.82 2°53.96 9.6 320 16 101850 69
2003-06-24 07:05:04 51°18.83 2°53.98 9.3 321 16 101850 69
2003-06-24 07:05:10 51°18.84 2°54.02 9 319 16 101850 69
2003-06-24 07:05:16 51°18.85 2°54.06 8.6 320 16 101850 68
2003-06-24 07:05:20 51°18.85 2°54.08 8.3 317 16 101850 68
2003-06-24 07:05:24 51°18.86 2°54.1 8.7 318 15.9 101840 67
2003-06-24 07:05:30 51°18.87 2°54.14 8 319 15.9 101840 67
2003-06-24 07:05:34 51°18.88 2°54.16 7.9 319 15.9 101840 66
2003-06-24 07:05:40 51°18.89 2°54.2 8.4 321 15.9 101840 66
2003-06-24 07:05:50 51°18.91 2°54.25 7.9 318 15.9 101840 65
2003-06-24 07:05:56 51°18.92 2°54.29 8.2 321 15.9 101840 65
2003-06-24 07:06:00 51°18.92 2°54.31 9.5 326 15.9 101840 65
2003-06-24 07:06:04 51°18.93 2°54.34 9.3 324 15.9 101850 66
2003-06-24 07:06:10 51°18.94 2°54.37 9.2 326 15.9 101850 66
2003-06-24 07:06:16 51°18.95 2°54.41 8.8 324 15.9 101840 66
2003-06-24 07:06:20 51°18.96 2°54.43 9.2 327 15.9 101840 66
2003-06-24 07:06:30 51°18.97 2°54.49 8.6 327 15.9 101840 66
2003-06-24 07:06:36 51°18.98 2°54.53 8.4 328 15.9 101840 66
2003-06-24 07:06:40 51°18.99 2°54.55 9 328 15.9 101840 66
2003-06-24 07:06:44 51°19 2°54.57 8.6 329 15.9 101840 66
2003-06-24 07:06:50 51°19.01 2°54.61 8.5 329 15.9 101840 66
2003-06-24 07:06:56 51°19.02 2°54.64 8.5 332 15.9 101840 66
2003-06-24 07:07:00 51°19.03 2°54.67 8.2 327 15.9 101840 66
2003-06-24 07:07:04 51°19.03 2°54.69 8.1 325 15.9 101840 67
2003-06-24 07:07:10 51°19.04 2°54.73 8.3 329 15.9 101840 67
2003-06-24 07:07:16 51°19.05 2°54.76 8.3 324 15.9 101840 66
2003-06-24 07:07:20 51°19.06 2°54.79 8.3 329 15.9 101840 66
2003-06-24 07:07:30 51°19.08 2°54.84 8.4 321 15.9 101840 66
2003-06-24 07:07:34 51°19.08 2°54.87 8 323 16 101840 67
2003-06-24 07:07:40 51°19.1 2°54.9 8.8 327 16 101840 67
2003-06-24 07:07:44 51°19.1 2°54.93 8.4 332 16 101840 67
2003-06-24 07:07:50 51°19.11 2°54.96 8.4 322 16 101840 67
2003-06-24 07:07:54 51°19.12 2°54.99 9.1 323 16 101840 67
2003-06-24 07:08:00 51°19.13 2°55.02 8.7 321 16 101840 67
2003-06-24 07:08:10 51°19.15 2°55.08 9.4 324 16 101840 67
2003-06-24 07:08:12 51°19.15 2°55.09 9 324 16 101840 68
2003-06-24 07:08:20 51°19.17 2°55.14 9.3 324 16 101840 68
2003-06-24 07:08:24 51°19.17 2°55.16 9.3 323 16 101840 69
2003-06-24 07:08:30 51°19.18 2°55.2 8.8 322 16 101840 69
2003-06-24 07:08:36 51°19.19 2°55.24 8.4 323 16 101840 68
2003-06-24 07:08:40 51°19.2 2°55.26 8.3 325 16 101840 68
2003-06-24 07:08:44 51°19.21 2°55.28 8.6 322 16 101840 67
2003-06-24 07:08:50 51°19.22 2°55.32 9 329 16 101840 67
2003-06-24 07:08:56 51°19.23 2°55.35 9.3 325 16 101840 67
2003-06-24 07:09:00 51°19.23 2°55.38 9.7 329 16 101840 67
2003-06-24 07:09:10 51°19.25 2°55.44 9.5 323 16 101840 67
2003-06-24 07:09:14 51°19.26 2°55.46 9.3 326 16 101840 68
2003-06-24 07:09:20 51°19.27 2°55.5 8.6 326 16 101840 68
2003-06-24 07:09:24 51°19.28 2°55.52 8.5 328 16 101840 68
2003-06-24 07:09:30 51°19.29 2°55.56 8.3 326 16 101840 68
2003-06-24 07:09:36 51°19.3 2°55.59 8.4 327 16 101830 67
2003-06-24 07:09:40 51°19.3 2°55.62 8.6 328 16 101830 67
2003-06-24 07:09:50 51°19.32 2°55.68 8.9 323 16 101830 67
2003-06-24 07:09:56 51°19.33 2°55.71 9.3 321 16 101840 66
2003-06-24 07:10:00 51°19.34 2°55.73 8.8 323 16 101840 66
2003-06-24 07:10:04 51°19.35 2°55.76 8.3 321 16 101840 67
2003-06-24 07:10:10 51°19.36 2°55.79 9.1 319 16 101840 67
2003-06-24 07:10:14 51°19.36 2°55.82 9.1 320 16 101840 67
2003-06-24 07:10:20 51°19.37 2°55.85 9.2 319 16 101840 67
2003-06-24 07:10:24 51°19.38 2°55.88 8.4 320 15.9 101830 66
2003-06-24 07:10:30 51°19.39 2°55.91 8.3 318 15.9 101830 66
2003-06-24 07:10:36 51°19.4 2°55.95 8.1 317 15.9 101840 66
2003-06-24 07:10:40 51°19.41 2°55.97 8.5 320 15.9 101840 66
2003-06-24 07:10:44 51°19.42 2°56 8.2 322 16 101840 67
2003-06-24 07:10:50 51°19.43 2°56.03 8.2 322 16 101840 67
2003-06-24 07:10:56 51°19.44 2°56.07 8.5 326 16 101830 67
2003-06-24 07:11:00 51°19.44 2°56.09 9.1 324 16 101830 67
2003-06-24 07:11:04 51°19.45 2°56.12 8.6 329 16 101840 67
2003-06-24 07:11:10 51°19.46 2°56.15 8 326 16 101840 67
2003-06-24 07:11:14 51°19.47 2°56.17 8.7 329 16 101830 68
2003-06-24 07:11:20 51°19.48 2°56.21 8.3 329 16 101830 68
2003-06-24 07:11:30 51°19.5 2°56.27 8.6 330 16 101840 67
2003-06-24 07:11:36 51°19.51 2°56.31 8.8 326 16 101830 67
2003-06-24 07:11:40 51°19.51 2°56.33 9.7 329 16 101830 67
2003-06-24 07:11:44 51°19.52 2°56.35 9.7 327 16 101830 67
2003-06-24 07:11:50 51°19.53 2°56.39 9.2 332 16 101830 67
2003-06-24 07:11:56 51°19.54 2°56.42 8.8 324 16 101830 67
2003-06-24 07:12:00 51°19.55 2°56.45 9.5 331 16 101830 67
2003-06-24 07:12:10 51°19.56 2°56.51 9.5 324 16 101840 67
2003-06-24 07:12:16 51°19.58 2°56.54 8.6 324 16 101830 68
2003-06-24 07:12:20 51°19.58 2°56.57 8.9 323 16 101830 68
2003-06-24 07:12:24 51°19.59 2°56.59 8.7 322 16 101830 68
2003-06-24 07:12:30 51°19.6 2°56.63 8.7 322 16 101830 68
2003-06-24 07:12:36 51°19.61 2°56.66 9.3 323 16 101830 67
2003-06-24 07:12:40 51°19.62 2°56.69 7.9 319 16 101830 67
2003-06-24 07:12:50 51°19.63 2°56.75 8.5 320 16 101830 66
2003-06-24 07:12:54 51°19.64 2°56.77 7.9 321 16 101830 66
2003-06-24 07:13:00 51°19.65 2°56.81 7.8 321 16 101830 66
2003-06-24 07:13:10 51°19.67 2°56.87 8 320 16 101830 66
2003-06-24 07:13:16 51°19.68 2°56.9 7.8 322 16 101830 66
2003-06-24 07:13:20 51°19.69 2°56.93 7.6 322 16 101830 66
2003-06-24 07:13:24 51°19.69 2°56.95 7.5 322 16 101830 67
2003-06-24 07:13:30 51°19.7 2°56.99 7.9 319 16 101830 67
2003-06-24 07:13:36 51°19.71 2°57.02 8.5 318 16 101840 67
2003-06-24 07:13:40 51°19.72 2°57.04 8.9 322 16 101840 67
2003-06-24 07:13:50 51°19.74 2°57.1 8.2 323 16 101830 67
2003-06-24 07:13:54 51°19.75 2°57.13 8.2 325 16 101840 67
2003-06-24 07:14:00 51°19.76 2°57.16 9.6 325 16 101840 67
2003-06-24 07:14:04 51°19.76 2°57.19 9.5 325 16 101840 68
2003-06-24 07:14:10 51°19.77 2°57.22 9.5 326 16 101840 68
2003-06-24 07:14:16 51°19.78 2°57.26 9.5 325 16 101830 67
2003-06-24 07:14:20 51°19.79 2°57.28 9.8 329 16 101830 67
2003-06-24 07:14:30 51°19.81 2°57.34 9.2 326 16.1 101840 68
2003-06-24 07:14:36 51°19.82 2°57.38 9.7 324 16 101830 68
2003-06-24 07:14:40 51°19.83 2°57.4 9.2 323 16 101830 68
2003-06-24 07:14:44 51°19.83 2°57.43 9 323 16 101830 67
2003-06-24 07:14:50 51°19.84 2°57.46 8.4 322 16 101830 67
2003-06-24 07:14:54 51°19.85 2°57.48 8.3 323 16 101830 66
2003-06-24 07:15:00 51°19.86 2°57.52 7.6 330 16 101830 66
2003-06-24 07:15:04 51°19.87 2°57.54 8.4 323 16 101830 66
2003-06-24 07:15:10 51°19.88 2°57.58 8.6 326 16 101830 66
2003-06-24 07:15:16 51°19.89 2°57.62 8.4 322 16 101830 66
2003-06-24 07:15:20 51°19.89 2°57.64 9.7 327 16 101830 66
2003-06-24 07:15:30 51°19.91 2°57.7 9.8 323 16 101840 66
2003-06-24 07:15:36 51°19.92 2°57.73 9.4 323 16 101840 67
2003-06-24 07:15:40 51°19.93 2°57.76 8.7 323 16 101840 67
2003-06-24 07:15:44 51°19.94 2°57.78 9.4 324 16 101830 68
2003-06-24 07:15:50 51°19.95 2°57.82 9 323 16 101830 68
2003-06-24 07:15:54 51°19.95 2°57.84 8.7 322 16 101830 67
2003-06-24 07:16:00 51°19.96 2°57.88 8.7 322 16 101830 67
2003-06-24 07:16:10 51°19.98 2°57.94 9.2 322 16 101830 67
2003-06-24 07:16:16 51°19.99 2°57.98 8.9 321 16 101830 66
2003-06-24 07:16:20 51°19.99 2°58 8.7 319 16 101830 66
2003-06-24 07:16:24 51°20 2°58.02 8.6 319 15.9 101840 66
2003-06-24 07:16:30 51°20.01 2°58.06 8.8 320 15.9 101840 66
2003-06-24 07:16:36 51°20.02 2°58.1 9 321 16 101830 67
2003-06-24 07:16:40 51°20.03 2°58.12 7.4 322 16 101830 67
2003-06-24 07:16:50 51°20.04 2°58.18 8 324 16 101830 67
2003-06-24 07:16:54 51°20.05 2°58.21 8.8 323 16 101830 67
2003-06-24 07:17:00 51°20.06 2°58.24 8.9 326 16 101830 67
2003-06-24 07:17:04 51°20.06 2°58.27 9.8 325 16 101840 67
2003-06-24 07:17:10 51°20.07 2°58.3 9.5 323 16 101840 67
2003-06-24 07:17:16 51°20.08 2°58.34 9.7 328 16 101830 68
2003-06-24 07:17:20 51°20.09 2°58.37 9.7 326 16 101830 68
2003-06-24 07:17:24 51°20.1 2°58.39 9.6 324 16 101830 67
2003-06-24 07:17:30 51°20.11 2°58.43 9.9 323 16 101830 67
2003-06-24 07:17:36 51°20.12 2°58.46 10.1 325 16 101830 67
2003-06-24 07:17:40 51°20.12 2°58.49 9 325 16 101830 67
2003-06-24 07:17:44 51°20.13 2°58.51 9.2 326 16 101830 67
2003-06-24 07:17:50 51°20.14 2°58.55 8.1 323 16 101830 67
2003-06-24 07:17:56 51°20.15 2°58.58 8.5 324 16 101830 67
2003-06-24 07:18:00 51°20.15 2°58.61 8.4 320 16 101830 67
2003-06-24 07:18:04 51°20.16 2°58.63 7.7 321 16 101830 67
2003-06-24 07:18:10 51°20.17 2°58.67 8.5 319 16 101830 67
2003-06-24 07:18:14 51°20.18 2°58.69 8.7 326 16 101830 67
2003-06-24 07:18:20 51°20.19 2°58.73 8 318 16 101830 67
2003-06-24 07:18:30 51°20.2 2°58.79 9.1 326 15.9 101830 67
2003-06-24 07:18:36 51°20.21 2°58.83 8.3 322 15.9 101830 67
2003-06-24 07:18:40 51°20.22 2°58.85 9.1 320 15.9 101830 67
2003-06-24 07:18:44 51°20.22 2°58.88 9.1 318 15.9 101830 67
2003-06-24 07:18:50 51°20.23 2°58.91 8.6 317 15.9 101830 67
2003-06-24 07:18:56 51°20.24 2°58.95 8.3 318 15.9 101840 68
2003-06-24 07:19:00 51°20.25 2°58.97 8.1 324 15.9 101840 68
2003-06-24 07:19:10 51°20.26 2°59.04 9.1 319 16 101830 68
2003-06-24 07:19:16 51°20.27 2°59.07 8.7 317 15.9 101830 67
2003-06-24 07:19:20 51°20.28 2°59.1 8.7 318 15.9 101830 67
2003-06-24 07:19:30 51°20.29 2°59.16 8.1 42 15.9 101830 68
2003-06-24 07:19:36 51°20.3 2°59.2 7.9 320 15.9 101830 68
2003-06-24 07:19:40 51°20.31 2°59.22 8.2 320 15.9 101830 68
2003-06-24 07:19:44 51°20.31 2°59.25 8.1 316 16 101830 69
2003-06-24 07:19:50 51°20.32 2°59.28 7.9 323 16 101830 69
2003-06-24 07:19:56 51°20.33 2°59.32 8.2 321 15.9 101830 68
2003-06-24 07:20:00 51°20.34 2°59.34 7.9 319 15.9 101830 68
2003-06-24 07:20:10 51°20.35 2°59.4 8 328 16 101830 69
2003-06-24 07:20:14 51°20.36 2°59.43 8.3 327 16 101830 69
2003-06-24 07:20:20 51°20.37 2°59.47 8.1 322 16 101830 69
2003-06-24 07:20:24 51°20.37 2°59.49 7.9 321 16 101830 68
2003-06-24 07:20:30 51°20.38 2°59.53 8.2 328 16 101830 68
2003-06-24 07:20:36 51°20.39 2°59.56 8.9 331 16 101830 68
2003-06-24 07:20:40 51°20.39 2°59.59 8.9 326 16 101830 68
2003-06-24 07:20:50 51°20.41 2°59.65 8.1 326 16 101830 68
2003-06-24 07:20:56 51°20.42 2°59.69 8.7 329 16 101830 69
2003-06-24 07:21:00 51°20.42 2°59.71 7.9 329 16 101830 69
2003-06-24 07:21:04 51°20.43 2°59.74 8.3 327 16 101830 69
2003-06-24 07:21:10 51°20.44 2°59.77 8.6 323 16 101830 69
2003-06-24 07:21:14 51°20.44 2°59.8 8.1 331 16 101830 69
2003-06-24 07:21:20 51°20.45 2°59.84 9.6 324 16 101830 69
2003-06-24 07:21:30 51°20.47 2°59.9 8.8 326 16 101830 68
2003-06-24 07:21:36 51°20.48 2°59.93 9 324 16 101830 68
2003-06-24 07:21:40 51°20.48 2°59.96 8.1 328 16 101830 68
2003-06-24 07:21:44 51°20.49 2°59.98 9.2 325 16 101830 69
2003-06-24 07:21:50 51°20.5 3°0.02 8.4 316 16 101830 69
2003-06-24 07:21:56 51°20.51 3°0.06 8.8 317 16.1 101830 69
2003-06-24 07:22:00 51°20.51 3°0.08 8.5 319 16.1 101830 69
2003-06-24 07:22:04 51°20.52 3°0.11 8.4 322 16.1 101820 69
2003-06-24 07:22:10 51°20.53 3°0.14 9.3 320 16.1 101820 69
2003-06-24 07:22:14 51°20.53 3°0.17 8.5 320 16.1 101820 69
2003-06-24 07:22:20 51°20.54 3°0.21 7.4 317 16.1 101820 69
2003-06-24 07:22:30 51°20.56 3°0.27 8.8 320 16.1 101830 68
2003-06-24 07:22:36 51°20.56 3°0.3 9.5 319 16.1 101830 68
2003-06-24 07:22:40 51°20.57 3°0.33 8.4 319 16.1 101830 68
2003-06-24 07:22:44 51°20.58 3°0.35 8.6 40 16.1 101830 67
2003-06-24 07:22:50 51°20.58 3°0.39 8 320 16.1 101830 67
2003-06-24 07:22:56 51°20.59 3°0.43 8.4 322 16.1 101830 68
2003-06-24 07:23:00 51°20.6 3°0.45 8 323 16.1 101830 68
2003-06-24 07:23:10 51°20.61 3°0.51 8 322 16.1 101830 69
2003-06-24 07:23:14 51°20.62 3°0.54 8.4 321 16.1 101830 68
2003-06-24 07:23:20 51°20.63 3°0.58 8.3 326 16.1 101830 68
2003-06-24 07:23:24 51°20.64 3°0.6 8.1 328 16.1 101830 68
2003-06-24 07:23:30 51°20.64 3°0.64 8 331 16.1 101830 68
2003-06-24 07:23:36 51°20.65 3°0.67 8 328 16.1 101830 67
2003-06-24 07:23:40 51°20.66 3°0.7 7.8 332 16.1 101830 67
2003-06-24 07:23:50 51°20.67 3°0.76 7.8 327 16.1 101830 68
2003-06-24 07:23:56 51°20.68 3°0.8 8.2 329 16.1 101830 68
2003-06-24 07:24:00 51°20.69 3°0.82 8.3 329 16.1 101830 68
2003-06-24 07:24:10 51°20.7 3°0.88 8 319 16.1 101830 68
2003-06-24 07:24:16 51°20.71 3°0.92 8.4 319 16.1 101830 68
2003-06-24 07:24:20 51°20.72 3°0.95 8.9 326 16.1 101830 68
2003-06-24 07:24:24 51°20.72 3°0.97 8.5 326 16.1 101830 68
2003-06-24 07:24:30 51°20.73 3°1.01 8 325 16.1 101830 68
2003-06-24 07:24:36 51°20.74 3°1.05 8.7 326 16.1 101830 68
2003-06-24 07:24:40 51°20.75 3°1.07 8.8 325 16.1 101830 68
2003-06-24 07:24:50 51°20.76 3°1.13 9.5 322 16.1 101830 68
2003-06-24 07:24:56 51°20.77 3°1.17 9.6 321 16.1 101830 68
2003-06-24 07:25:00 51°20.78 3°1.19 8.6 320 16.1 101830 68
2003-06-24 07:25:04 51°20.78 3°1.22 8.7 320 16.1 101830 67
2003-06-24 07:25:10 51°20.79 3°1.26 8.6 324 16.1 101830 67
2003-06-24 07:25:16 51°20.8 3°1.29 8.3 325 16.1 101830 68
2003-06-24 07:25:20 51°20.81 3°1.32 8.4 324 16.1 101830 68
2003-06-24 07:25:30 51°20.82 3°1.38 8.8 324 16.1 101830 68
2003-06-24 07:25:36 51°20.83 3°1.42 8.2 323 16.1 101830 67
2003-06-24 07:25:40 51°20.84 3°1.44 8.3 319 16.1 101830 67
2003-06-24 07:25:44 51°20.84 3°1.46 8.5 319 16.1 101830 67
2003-06-24 07:25:50 51°20.85 3°1.5 9.3 321 16.1 101830 67
2003-06-24 07:25:54 51°20.86 3°1.53 9.6 325 16.1 101830 68
2003-06-24 07:26:00 51°20.87 3°1.56 9.5 327 16.1 101830 68
2003-06-24 07:26:04 51°20.87 3°1.59 9 322 16.1 101830 68
2003-06-24 07:26:10 51°20.88 3°1.63 8.8 324 16.1 101830 68
2003-06-24 07:26:16 51°20.89 3°1.66 9.1 323 16.1 101830 69
2003-06-24 07:26:20 51°20.89 3°1.69 9 324 16.1 101830 69
2003-06-24 07:26:30 51°20.91 3°1.75 8.8 326 16.2 101830 68
2003-06-24 07:26:36 51°20.92 3°1.79 8.7 327 16.1 101830 68
2003-06-24 07:26:40 51°20.92 3°1.81 8.1 325 16.1 101830 68
2003-06-24 07:26:44 51°20.93 3°1.84 8.3 328 16.1 101820 67
2003-06-24 07:26:50 51°20.94 3°1.87 8.4 323 16.1 101820 67
2003-06-24 07:26:54 51°20.95 3°1.9 8.3 319 16.1 101830 67
2003-06-24 07:27:00 51°20.95 3°1.93 8.8 328 16.1 101830 67
2003-06-24 07:27:10 51°20.97 3°2 9 319 16.1 101830 67
2003-06-24 07:27:16 51°20.98 3°2.03 8.7 319 16.1 101830 67
2003-06-24 07:27:20 51°20.98 3°2.06 8.6 320 16.1 101830 67
2003-06-24 07:27:24 51°20.99 3°2.08 8.9 321 16.1 101830 67
2003-06-24 07:27:30 51°21 3°2.12 8.7 319 16.1 101830 67
2003-06-24 07:27:36 51°21.01 3°2.16 8.1 320 16.1 101830 67
2003-06-24 07:27:40 51°21.01 3°2.18 8.3 324 16.1 101830 67
2003-06-24 07:27:50 51°21.03 3°2.24 8.5 324 16.1 101830 66
2003-06-24 07:27:56 51°21.04 3°2.28 8 321 16.1 101830 68
2003-06-24 07:28:00 51°21.04 3°2.31 8.5 331 16.1 101830 68
2003-06-24 07:28:04 51°21.05 3°2.33 8.4 328 16.1 101820 68
2003-06-24 07:28:10 51°21.06 3°2.37 8.4 333 16.1 101820 68
2003-06-24 07:28:16 51°21.07 3°2.41 8.3 330 16.1 101820 67
2003-06-24 07:28:20 51°21.08 3°2.43 9.2 328 16.1 101820 67
2003-06-24 07:28:24 51°21.08 3°2.46 8.7 330 16.2 101830 68
2003-06-24 07:28:30 51°21.09 3°2.49 8.6 329 16.2 101830 68
2003-06-24 07:28:36 51°21.1 3°2.53 8.4 325 16.2 101830 69
2003-06-24 07:28:40 51°21.11 3°2.55 8.8 331 16.2 101830 69
2003-06-24 07:28:44 51°21.11 3°2.58 8.7 328 16.2 101830 68
2003-06-24 07:28:50 51°21.12 3°2.62 8.6 323 16.2 101830 68
2003-06-24 07:28:56 51°21.13 3°2.65 9.6 324 16.2 101830 68
2003-06-24 07:29:00 51°21.13 3°2.68 8.8 324 16.2 101830 68
2003-06-24 07:29:04 51°21.14 3°2.7 8.8 323 16.2 101830 68
2003-06-24 07:29:10 51°21.15 3°2.74 8.5 319 16.2 101830 68
2003-06-24 07:29:14 51°21.16 3°2.77 8 322 16.2 101830 68
2003-06-24 07:29:20 51°21.16 3°2.8 7.8 321 16.2 101830 68
2003-06-24 07:29:30 51°21.18 3°2.87 7.9 320 16.2 101820 68
2003-06-24 07:29:36 51°21.19 3°2.9 7.2 318 16.2 101830 67
2003-06-24 07:29:40 51°21.19 3°2.93 7.7 324 16.2 101830 67
2003-06-24 07:29:44 51°21.2 3°2.95 8.5 327 16.2 101830 67
2003-06-24 07:29:50 51°21.21 3°2.99 9.5 323 16.2 101830 67
2003-06-24 07:29:56 51°21.22 3°3.03 9.3 322 16.2 101830 67
2003-06-24 07:30:00 51°21.22 3°3.05 8.3 321 16.2 101830 67
2003-06-24 07:30:10 51°21.24 3°3.12 8.9 325 16.2 101830 68
2003-06-24 07:30:16 51°21.24 3°3.15 8.7 323 16.2 101830 68
2003-06-24 07:30:20 51°21.25 3°3.18 8.1 320 16.2 101830 68
2003-06-24 07:30:24 51°21.25 3°3.21 7.9 320 16.2 101830 67
2003-06-24 07:30:30 51°21.26 3°3.24 8.1 319 16.2 101830 67
2003-06-24 07:30:36 51°21.27 3°3.28 7.5 318 16.2 101830 66
2003-06-24 07:30:40 51°21.27 3°3.31 7.1 322 16.2 101830 66
2003-06-24 07:30:44 51°21.28 3°3.33 7.5 320 16.1 101820 65
2003-06-24 07:30:50 51°21.29 3°3.37 6.9 322 16.1 101820 65
2003-06-24 07:30:56 51°21.29 3°3.41 6.6 320 16.1 101820 65
2003-06-24 07:31:00 51°21.3 3°3.44 7.2 324 16.1 101820 65
2003-06-24 07:31:10 51°21.31 3°3.5 8.3 325 16.1 101830 65
2003-06-24 07:31:16 51°21.32 3°3.54 8.3 324 16.1 101830 65
2003-06-24 07:31:20 51°21.32 3°3.56 7.8 326 16.1 101830 65
2003-06-24 07:31:24 51°21.33 3°3.59 8.2 321 16.2 101830 66
2003-06-24 07:31:28 51°21.33 3°3.61 7.3 327 16.2 101830 66
2003-06-24 07:31:36 51°21.34 3°3.66 7.6 319 16.2 101830 67
2003-06-24 07:31:40 51°21.35 3°3.69 8.5 333 16.2 101830 67
2003-06-24 07:31:44 51°21.35 3°3.72 9 325 16.2 101830 66
2003-06-24 07:31:50 51°21.36 3°3.75 8.7 323 16.2 101830 66
2003-06-24 07:31:56 51°21.37 3°3.79 8.9 323 16.2 101830 66
2003-06-24 07:32:00 51°21.37 3°3.82 8.9 320 16.2 101830 66
2003-06-24 07:32:04 51°21.38 3°3.84 8.4 319 16.2 101830 67
2003-06-24 07:32:10 51°21.38 3°3.88 9.3 323 16.2 101830 67
2003-06-24 07:32:14 51°21.39 3°3.91 9.3 324 16.2 101830 67
2003-06-24 07:32:20 51°21.4 3°3.94 8.6 321 16.2 101830 67
2003-06-24 07:32:24 51°21.4 3°3.97 8.6 324 16.2 101820 66
2003-06-24 07:32:30 51°21.41 3°4.01 8.4 320 16.2 101820 66
2003-06-24 07:32:36 51°21.42 3°4.05 8.4 325 16.2 101830 65
2003-06-24 07:32:40 51°21.42 3°4.07 7.8 323 16.2 101830 65
2003-06-24 07:32:44 51°21.43 3°4.1 7.9 319 16.2 101830 65
2003-06-24 07:32:50 51°21.43 3°4.14 7.7 326 16.2 101830 65
2003-06-24 07:32:56 51°21.44 3°4.17 8.5 323 16.2 101830 65
2003-06-24 07:33:00 51°21.44 3°4.2 8.3 323 16.2 101830 65
2003-06-24 07:33:04 51°21.45 3°4.22 8 324 16.1 101830 65
2003-06-24 07:33:10 51°21.46 3°4.26 7.5 320 16.1 101830 65
2003-06-24 07:33:16 51°21.46 3°4.3 8.1 315 16.2 101840 65
2003-06-24 07:33:20 51°21.47 3°4.33 7.9 315 16.2 101840 65
2003-06-24 07:33:30 51°21.48 3°4.39 7.9 324 16.2 101830 64
2003-06-24 07:33:34 51°21.49 3°4.42 8.5 321 16.2 101830 65
2003-06-24 07:33:40 51°21.49 3°4.46 8.1 321 16.2 101830 65
2003-06-24 07:33:44 51°21.5 3°4.48 8 318 16.2 101830 65
2003-06-24 07:33:48 51°21.5 3°4.51 8.7 325 16.2 101830 65
2003-06-24 07:33:56 51°21.51 3°4.56 7.2 324 16.2 101830 66
2003-06-24 07:34:00 51°21.52 3°4.58 9.6 321 16.2 101830 66
2003-06-24 07:34:04 51°21.52 3°4.61 9.2 320 16.2 101830 67
2003-06-24 07:34:10 51°21.53 3°4.65 8.7 323 16.2 101830 67
2003-06-24 07:34:16 51°21.54 3°4.69 8.7 321 16.3 101830 68
2003-06-24 07:34:20 51°21.54 3°4.71 7.8 324 16.3 101830 68
2003-06-24 07:34:24 51°21.55 3°4.74 8.6 324 16.3 101830 67
2003-06-24 07:34:30 51°21.56 3°4.78 8.7 324 16.3 101830 67
2003-06-24 07:34:34 51°21.56 3°4.8 8.5 320 16.3 101830 67
2003-06-24 07:34:40 51°21.57 3°4.84 10 319 16.3 101830 67
2003-06-24 07:34:44 51°21.57 3°4.87 10.1 319 16.3 101830 67
2003-06-24 07:34:48 51°21.58 3°4.89 9.4 317 16.3 101830 67
2003-06-24 07:34:56 51°21.59 3°4.94 9 318 16.2 101830 68
2003-06-24 07:35:00 51°21.59 3°4.97 8.8 320 16.2 101830 68
2003-06-24 07:35:04 51°21.6 3°5 9 323 16.3 101830 66
2003-06-24 07:35:10 51°21.61 3°5.03 8.3 323 16.3 101830 66
2003-06-24 07:35:16 51°21.61 3°5.07 9 323 16.2 101830 65
2003-06-24 07:35:20 51°21.62 3°5.1 8.3 315 16.2 101830 65
2003-06-24 07:35:24 51°21.62 3°5.12 8.4 318 16.2 101830 65
2003-06-24 07:35:30 51°21.63 3°5.16 7.6 317 16.2 101830 65
2003-06-24 07:35:34 51°21.64 3°5.19 7.6 319 16.2 101840 66
2003-06-24 07:35:40 51°21.64 3°5.23 7.7 318 16.2 101840 66
2003-06-24 07:35:48 51°21.65 3°5.28 8.4 322 16.2 101840 65
2003-06-24 07:35:56 51°21.66 3°5.33 8.4 321 16.2 101830 64
2003-06-24 07:36:00 51°21.67 3°5.36 7.5 40 16.2 101830 64
2003-06-24 07:36:04 51°21.67 3°5.38 7.8 42 16.2 101840 64
2003-06-24 07:36:10 51°21.68 3°5.42 8.6 319 16.2 101840 64
2003-06-24 07:36:16 51°21.69 3°5.46 8.5 320 16.2 101840 65
2003-06-24 07:36:20 51°21.69 3°5.49 6.7 329 16.2 101840 65
2003-06-24 07:36:30 51°21.7 3°5.55 8.2 325 16.2 101840 64
2003-06-24 07:36:36 51°21.71 3°5.59 9.8 319 16.2 101840 66
2003-06-24 07:36:40 51°21.72 3°5.61 8 317 16.2 101840 66
2003-06-24 07:36:44 51°21.72 3°5.64 8.6 319 16.2 101840 66
2003-06-24 07:36:48 51°21.72 3°5.67 8.5 317 16.2 101840 66
2003-06-24 07:36:56 51°21.73 3°5.72 8.2 323 16.2 101840 66
2003-06-24 07:37:00 51°21.74 3°5.74 8.6 328 16.2 101840 66
2003-06-24 07:37:04 51°21.74 3°5.77 9.1 330 16.2 101830 65
2003-06-24 07:37:10 51°21.75 3°5.81 7.8 326 16.2 101830 65
2003-06-24 07:37:16 51°21.76 3°5.85 8.4 323 16.3 101840 66
2003-06-24 07:37:20 51°21.76 3°5.87 7.6 329 16.3 101840 66
2003-06-24 07:37:30 51°21.77 3°5.94 8.2 331 16.3 101840 65
2003-06-24 07:37:34 51°21.77 3°5.96 7.9 331 16.2 101830 65
2003-06-24 07:37:40 51°21.78 3°6 7.2 331 16.2 101830 65
2003-06-24 07:37:44 51°21.78 3°6.03 7 332 16.3 101840 66
2003-06-24 07:37:48 51°21.79 3°6.05 7.8 332 16.3 101840 66
2003-06-24 07:37:56 51°21.8 3°6.11 8 335 16.3 101840 66
2003-06-24 07:38:00 51°21.8 3°6.13 7 331 16.3 101840 66
2003-06-24 07:38:04 51°21.81 3°6.16 7.3 331 16.3 101840 66
2003-06-24 07:38:10 51°21.81 3°6.2 6.7 330 16.3 101840 66
2003-06-24 07:38:16 51°21.82 3°6.24 7 329 16.3 101840 66
2003-06-24 07:38:20 51°21.82 3°6.26 6.9 331 16.3 101840 66
2003-06-24 07:38:24 51°21.83 3°6.29 6.9 333 16.3 101850 66
2003-06-24 07:38:30 51°21.83 3°6.33 7.3 326 16.3 101850 66
2003-06-24 07:38:34 51°21.83 3°6.35 7.2 326 16.3 101850 66
2003-06-24 07:38:40 51°21.84 3°6.39 8 327 16.3 101850 66
2003-06-24 07:38:44 51°21.84 3°6.42 8.4 324 16.3 101850 66
2003-06-24 07:38:48 51°21.85 3°6.44 7.8 322 16.3 101850 66
2003-06-24 07:38:56 51°21.86 3°6.5 7.8 324 16.4 101850 67
2003-06-24 07:39:00 51°21.86 3°6.52 7.1 321 16.4 101850 67
2003-06-24 07:39:04 51°21.86 3°6.55 8.1 328 16.4 101840 66
2003-06-24 07:39:10 51°21.87 3°6.59 8.5 325 16.4 101840 66
2003-06-24 07:39:16 51°21.87 3°6.63 8.1 326 16.4 101840 66
2003-06-24 07:39:20 51°21.88 3°6.65 7.8 325 16.4 101840 66
2003-06-24 07:39:24 51°21.88 3°6.68 7.7 327 16.4 101840 67
2003-06-24 07:39:30 51°21.89 3°6.72 7.7 328 16.4 101840 67
2003-06-24 07:39:34 51°21.89 3°6.74 7.5 326 16.4 101840 67
2003-06-24 07:39:40 51°21.9 3°6.78 7.7 329 16.4 101840 67
2003-06-24 07:39:48 51°21.9 3°6.84 7.4 323 16.4 101840 67
2003-06-24 07:39:56 51°21.91 3°6.89 7.3 319 16.4 101850 67
2003-06-24 07:40:00 51°21.92 3°6.91 6.9 327 16.4 101850 67
2003-06-24 07:40:04 51°21.92 3°6.94 6.6 327 16.4 101850 67
2003-06-24 07:40:10 51°21.92 3°6.98 6.4 326 16.4 101850 67
2003-06-24 07:40:16 51°21.93 3°7.02 6.2 329 16.4 101850 67
2003-06-24 07:40:20 51°21.93 3°7.05 7.7 325 16.4 101850 67
2003-06-24 07:40:24 51°21.94 3°7.07 8.4 318 16.4 101840 67
2003-06-24 07:40:28 51°21.94 3°7.1 7.5 318 16.4 101840 67
2003-06-24 07:40:36 51°21.95 3°7.15 7.7 316 16.4 101850 67
2003-06-24 07:40:40 51°21.95 3°7.18 7.8 317 16.4 101850 67
2003-06-24 07:40:44 51°21.96 3°7.2 8.2 317 16.4 101850 68
2003-06-24 07:40:50 51°21.96 3°7.24 7.3 317 16.4 101850 68
2003-06-24 07:40:54 51°21.97 3°7.27 7.5 318 16.4 101840 67
2003-06-24 07:41:00 51°21.97 3°7.31 7.4 317 16.4 101840 67
2003-06-24 07:41:04 51°21.98 3°7.34 7.5 320 16.4 101840 67
2003-06-24 07:41:08 51°21.98 3°7.36 7.8 326 16.4 101840 67
2003-06-24 07:41:16 51°21.99 3°7.42 6.9 326 16.3 101850 65
2003-06-24 07:41:20 51°21.99 3°7.44 7.1 329 16.3 101850 65
2003-06-24 07:41:24 51°21.99 3°7.47 7.4 326 16.3 101850 65
2003-06-24 07:41:30 51°22 3°7.51 7.4 331 16.3 101850 65
2003-06-24 07:41:34 51°22 3°7.53 7.5 328 16.3 101850 66
2003-06-24 07:41:40 51°22.01 3°7.57 7.3 324 16.3 101850 66
2003-06-24 07:41:44 51°22.01 3°7.6 7.1 325 16.3 101850 66
2003-06-24 07:41:48 51°22.02 3°7.63 6.8 324 16.3 101850 66
2003-06-24 07:41:56 51°22.02 3°7.68 7.2 321 16.3 101850 66
2003-06-24 07:42:00 51°22.03 3°7.71 6.4 329 16.3 101850 66
2003-06-24 07:42:04 51°22.03 3°7.73 5.9 320 16.3 101850 66
2003-06-24 07:42:10 51°22.04 3°7.77 8 327 16.3 101850 66
2003-06-24 07:42:16 51°22.04 3°7.81 7.9 327 16.3 101850 66
2003-06-24 07:42:20 51°22.05 3°7.84 7.8 327 16.3 101850 66
2003-06-24 07:42:24 51°22.05 3°7.86 7.6 329 16.3 101850 67
2003-06-24 07:42:30 51°22.05 3°7.9 7.9 321 16.3 101850 67
2003-06-24 07:42:34 51°22.06 3°7.93 7.9 329 16.4 101850 67
2003-06-24 07:42:40 51°22.06 3°7.97 8 327 16.4 101850 67
2003-06-24 07:42:48 51°22.07 3°8.02 7.4 326 16.3 101850 65
2003-06-24 07:42:56 51°22.08 3°8.08 7.5 325 16.3 101840 65
2003-06-24 07:43:00 51°22.08 3°8.1 7.5 325 16.3 101840 65
2003-06-24 07:43:04 51°22.09 3°8.13 7.5 327 16.3 101840 65
2003-06-24 07:43:10 51°22.09 3°8.17 7.2 324 16.3 101840 65
2003-06-24 07:43:16 51°22.1 3°8.21 7.6 325 16.3 101840 63
2003-06-24 07:43:20 51°22.1 3°8.23 7.4 324 16.3 101840 63
2003-06-24 07:43:24 51°22.1 3°8.26 7.1 325 16.3 101850 64
2003-06-24 07:43:30 51°22.11 3°8.3 7.2 322 16.3 101850 64
2003-06-24 07:43:36 51°22.11 3°8.34 6.8 325 16.3 101840 64
2003-06-24 07:43:40 51°22.12 3°8.37 7.6 325 16.3 101840 64
2003-06-24 07:43:44 51°22.12 3°8.4 7.5 328 16.3 101850 63
2003-06-24 07:43:48 51°22.12 3°8.42 7.2 319 16.3 101850 63
2003-06-24 07:43:56 51°22.13 3°8.48 6.5 323 16.3 101850 64
2003-06-24 07:44:00 51°22.13 3°8.5 6.7 319 16.3 101850 64
2003-06-24 07:44:04 51°22.14 3°8.53 6.8 329 16.3 101850 65
2003-06-24 07:44:10 51°22.14 3°8.57 7.2 326 16.3 101850 65
2003-06-24 07:44:22 51°22.15 3°8.65 6.5 325 16.4 101850 67
2003-06-24 07:44:28 51°22.16 3°8.69 6.3 323 16.4 101850 67
2003-06-24 07:44:32 51°22.16 3°8.72 7.4 339 16.4 101840 66
2003-06-24 07:44:36 51°22.17 3°8.74 8.2 326 16.4 101840 66
2003-06-24 07:44:40 51°22.17 3°8.77 7.6 328 16.4 101850 66
2003-06-24 07:44:44 51°22.17 3°8.8 7.3 327 16.4 101850 66
2003-06-24 07:44:52 51°22.18 3°8.85 7.4 326 16.4 101850 67
2003-06-24 07:44:56 51°22.18 3°8.88 7.4 326 16.4 101850 67
2003-06-24 07:45:00 51°22.19 3°8.91 6.9 330 16.4 101850 67
2003-06-24 07:45:10 51°22.2 3°8.97 6.9 332 16.4 101850 67
2003-06-24 07:45:16 51°22.2 3°9.01 7.8 332 16.4 101850 67
2003-06-24 07:45:20 51°22.2 3°9.04 7.7 329 16.4 101850 67
2003-06-24 07:45:24 51°22.21 3°9.07 7.1 329 16.4 101850 66
2003-06-24 07:45:30 51°22.21 3°9.11 7.4 328 16.4 101850 66
2003-06-24 07:45:36 51°22.22 3°9.15 7.2 331 16.4 101850 67
2003-06-24 07:45:40 51°22.22 3°9.17 6.9 332 16.4 101850 67
2003-06-24 07:45:44 51°22.23 3°9.2 6.8 330 16.4 101840 66
2003-06-24 07:45:50 51°22.23 3°9.24 6.8 327 16.4 101840 66
2003-06-24 07:45:56 51°22.24 3°9.28 7.6 320 16.4 101850 66
2003-06-24 07:46:00 51°22.24 3°9.31 6.8 324 16.4 101850 66
2003-06-24 07:46:04 51°22.24 3°9.33 6.9 323 16.4 101850 66
2003-06-24 07:46:10 51°22.25 3°9.37 7.6 330 16.4 101850 66
2003-06-24 07:46:14 51°22.25 3°9.4 7.7 330 16.4 101850 66
2003-06-24 07:46:20 51°22.26 3°9.44 6.9 324 16.4 101850 66
2003-06-24 07:46:24 51°22.26 3°9.47 7 324 16.4 101850 66
2003-06-24 07:46:28 51°22.26 3°9.49 7.4 330 16.4 101850 66
2003-06-24 07:46:36 51°22.27 3°9.55 8.2 332 16.4 101850 67
2003-06-24 07:46:40 51°22.27 3°9.57 8.2 334 16.4 101850 67
2003-06-24 07:46:44 51°22.28 3°9.6 7.9 329 16.4 101850 66
2003-06-24 07:46:50 51°22.28 3°9.64 8.3 328 16.4 101850 66
2003-06-24 07:46:56 51°22.29 3°9.68 8.2 328 16.4 101850 66
2003-06-24 07:47:00 51°22.29 3°9.71 7.6 332 16.4 101850 66
2003-06-24 07:47:04 51°22.29 3°9.74 7.2 330 16.4 101850 66
2003-06-24 07:47:10 51°22.3 3°9.78 8.1 328 16.4 101850 66
2003-06-24 07:47:14 51°22.3 3°9.8 7.7 329 16.4 101840 65
2003-06-24 07:47:20 51°22.31 3°9.84 7.5 323 16.4 101840 65
2003-06-24 07:47:24 51°22.31 3°9.87 7.4 331 16.4 101850 65
2003-06-24 07:47:28 51°22.32 3°9.9 6.8 322 16.4 101850 65
2003-06-24 07:47:36 51°22.32 3°9.95 6.4 324 16.4 101850 65
2003-06-24 07:47:40 51°22.32 3°9.98 7 320 16.4 101850 65
2003-06-24 07:47:44 51°22.33 3°10.01 6.5 322 16.4 101840 64
2003-06-24 07:47:50 51°22.33 3°10.05 7.9 327 16.4 101840 64
2003-06-24 07:47:56 51°22.34 3°10.09 8.1 326 16.4 101840 64
2003-06-24 07:48:00 51°22.34 3°10.12 7.5 329 16.4 101840 64
2003-06-24 07:48:04 51°22.35 3°10.14 7.2 330 16.4 101850 63
2003-06-24 07:48:10 51°22.35 3°10.18 8.2 331 16.4 101850 63
2003-06-24 07:48:16 51°22.36 3°10.22 8 331 16.4 101850 65
2003-06-24 07:48:20 51°22.36 3°10.25 7.6 335 16.4 101850 65
2003-06-24 07:48:28 51°22.37 3°10.31 7.3 331 16.4 101840 66
2003-06-24 07:48:36 51°22.37 3°10.36 7.4 332 16.5 101850 66
2003-06-24 07:48:40 51°22.38 3°10.39 7.3 325 16.5 101850 66
2003-06-24 07:48:44 51°22.38 3°10.41 7.4 329 16.5 101840 66
2003-06-24 07:48:50 51°22.38 3°10.45 6.9 335 16.5 101840 66
2003-06-24 07:48:56 51°22.39 3°10.49 7.4 329 16.5 101840 66
2003-06-24 07:49:00 51°22.39 3°10.52 6.8 329 16.5 101840 66
2003-06-24 07:49:10 51°22.4 3°10.59 6.6 330 16.5 101840 66
2003-06-24 07:49:16 51°22.41 3°10.63 6.3 328 16.5 101840 66
2003-06-24 07:49:20 51°22.41 3°10.66 6.3 332 16.5 101840 66
2003-06-24 07:49:24 51°22.41 3°10.68 6.8 330 16.4 101840 66
2003-06-24 07:49:28 51°22.42 3°10.71 7 323 16.4 101840 66
2003-06-24 07:49:36 51°22.42 3°10.76 6.8 322 16.5 101850 65
2003-06-24 07:49:40 51°22.43 3°10.79 7 329 16.5 101850 65
2003-06-24 07:49:44 51°22.43 3°10.82 7.2 326 16.5 101850 66
2003-06-24 07:49:50 51°22.44 3°10.86 6.8 329 16.5 101850 66
2003-06-24 07:49:56 51°22.44 3°10.9 6.6 326 16.5 101840 65
2003-06-24 07:50:00 51°22.44 3°10.92 6.5 330 16.5 101840 65
2003-06-24 07:50:04 51°22.45 3°10.95 6.4 331 16.4 101840 65
2003-06-24 07:50:10 51°22.45 3°10.99 6.3 328 16.4 101840 65
2003-06-24 07:50:14 51°22.46 3°11.02 6.7 328 16.4 101840 64
2003-06-24 07:50:20 51°22.46 3°11.06 5.8 329 16.4 101840 64
2003-06-24 07:50:24 51°22.46 3°11.09 5.9 328 16.4 101850 64
2003-06-24 07:50:28 51°22.47 3°11.11 5.9 331 16.4 101850 64
2003-06-24 07:50:36 51°22.47 3°11.17 6.4 331 16.4 101840 64
2003-06-24 07:50:40 51°22.48 3°11.2 5.9 327 16.4 101840 64
2003-06-24 07:50:44 51°22.48 3°11.22 6.1 330 16.4 101850 64
2003-06-24 07:50:50 51°22.48 3°11.26 7.5 325 16.4 101850 64
2003-06-24 07:50:56 51°22.49 3°11.3 7.6 325 16.4 101840 65
2003-06-24 07:51:00 51°22.49 3°11.33 7.2 324 16.4 101840 65
2003-06-24 07:51:04 51°22.5 3°11.36 7.4 320 16.5 101850 66
2003-06-24 07:51:10 51°22.5 3°11.4 6.9 322 16.5 101850 66
2003-06-24 07:51:14 51°22.51 3°11.43 7 322 16.5 101840 65
2003-06-24 07:51:20 51°22.51 3°11.47 7.6 331 16.5 101840 65
2003-06-24 07:51:28 51°22.52 3°11.52 7.8 330 16.5 101840 65